<?xml version="1.0" encoding="UTF-8" standalone="no" ?>
<gpx xmlns="http://www.topografix.com/GPX/1/1" xmlns:xsi="http://www.w3.org/2001/XMLSchema-instance" xsi:schemaLocation="http://www.topografix.com/GPX/1/1 http://www.topografix.com/GPX/1/1/gpx.xsd" version="1.1" creator="VisuGPX - https://www.visugpx.com">
  <metadata>
    <name>Aravis, séjour du RCMF</name>
    <desc><![CDATA[Aravis, séjour du RCMF]]></desc>
  </metadata>
  <trk>
    <name><![CDATA[Orsiere2]]></name>
    <trkseg>
      <trkpt lat="45.84983" lon="6.37634">
        <ele>1172</ele>
        <time>2004-01-19T18:03:57Z</time>
      </trkpt>
      <trkpt lat="45.84977" lon="6.37677">
        <ele>1175</ele>
        <time>2004-01-19T18:03:57Z</time>
      </trkpt>
      <trkpt lat="45.84951" lon="6.37713">
        <ele>1178</ele>
        <time>2004-01-19T18:03:57Z</time>
      </trkpt>
      <trkpt lat="45.84841" lon="6.37677">
        <ele>1179</ele>
        <time>2004-01-19T18:03:57Z</time>
      </trkpt>
      <trkpt lat="45.84807" lon="6.37698">
        <ele>1181</ele>
        <time>2004-01-19T18:03:57Z</time>
      </trkpt>
      <trkpt lat="45.84745" lon="6.37941">
        <ele>1195</ele>
        <time>2004-01-19T18:03:57Z</time>
      </trkpt>
      <trkpt lat="45.84713" lon="6.37995">
        <ele>1198</ele>
        <time>2004-01-19T18:03:57Z</time>
      </trkpt>
      <trkpt lat="45.84657" lon="6.38035">
        <ele>1200</ele>
        <time>2004-01-19T18:03:57Z</time>
      </trkpt>
      <trkpt lat="45.8464" lon="6.38065">
        <ele>1203</ele>
        <time>2004-01-19T18:03:57Z</time>
      </trkpt>
      <trkpt lat="45.8458" lon="6.38297">
        <ele>1207</ele>
        <time>2004-01-19T18:03:57Z</time>
      </trkpt>
      <trkpt lat="45.84524" lon="6.38351">
        <ele>1210</ele>
        <time>2004-01-19T18:03:57Z</time>
      </trkpt>
      <trkpt lat="45.84481" lon="6.38357">
        <ele>1209</ele>
        <time>2004-01-19T18:03:57Z</time>
      </trkpt>
      <trkpt lat="45.84453" lon="6.38499">
        <ele>1212</ele>
        <time>2004-01-19T18:03:57Z</time>
      </trkpt>
      <trkpt lat="45.84376" lon="6.38561">
        <ele>1217</ele>
        <time>2004-01-19T18:03:57Z</time>
      </trkpt>
      <trkpt lat="45.84303" lon="6.38731">
        <ele>1230</ele>
        <time>2004-01-19T18:03:57Z</time>
      </trkpt>
      <trkpt lat="45.84234" lon="6.38739">
        <ele>1238</ele>
        <time>2004-01-19T18:03:57Z</time>
      </trkpt>
      <trkpt lat="45.84187" lon="6.38821">
        <ele>1233</ele>
        <time>2004-01-19T18:03:57Z</time>
      </trkpt>
      <trkpt lat="45.84219" lon="6.38921">
        <ele>1232</ele>
        <time>2004-01-19T18:03:57Z</time>
      </trkpt>
      <trkpt lat="45.84286" lon="6.38937">
        <ele>1246</ele>
        <time>2004-01-19T18:03:57Z</time>
      </trkpt>
      <trkpt lat="45.84288" lon="6.38958">
        <ele>1245</ele>
        <time>2004-01-19T18:03:57Z</time>
      </trkpt>
      <trkpt lat="45.84243" lon="6.39029">
        <ele>1260</ele>
        <time>2004-01-19T18:03:57Z</time>
      </trkpt>
      <trkpt lat="45.84204" lon="6.39067">
        <ele>1267</ele>
        <time>2004-01-19T18:03:57Z</time>
      </trkpt>
      <trkpt lat="45.84133" lon="6.39108">
        <ele>1279</ele>
        <time>2004-01-19T18:03:57Z</time>
      </trkpt>
      <trkpt lat="45.84082" lon="6.39108">
        <ele>1283</ele>
        <time>2004-01-19T18:03:57Z</time>
      </trkpt>
      <trkpt lat="45.84118" lon="6.39164">
        <ele>1280</ele>
        <time>2004-01-19T18:03:57Z</time>
      </trkpt>
      <trkpt lat="45.84108" lon="6.39183">
        <ele>1285</ele>
        <time>2004-01-19T18:03:57Z</time>
      </trkpt>
      <trkpt lat="45.84048" lon="6.3923">
        <ele>1305</ele>
        <time>2004-01-19T18:03:57Z</time>
      </trkpt>
      <trkpt lat="45.84007" lon="6.39235">
        <ele>1311</ele>
        <time>2004-01-19T18:03:57Z</time>
      </trkpt>
      <trkpt lat="45.83827" lon="6.39327">
        <ele>1331</ele>
        <time>2004-01-19T18:03:57Z</time>
      </trkpt>
      <trkpt lat="45.83749" lon="6.39299">
        <ele>1347</ele>
        <time>2004-01-19T18:03:57Z</time>
      </trkpt>
      <trkpt lat="45.83601" lon="6.39299">
        <ele>1356</ele>
        <time>2004-01-19T18:03:57Z</time>
      </trkpt>
      <trkpt lat="45.83494" lon="6.39261">
        <ele>1367</ele>
        <time>2004-01-19T18:03:57Z</time>
      </trkpt>
      <trkpt lat="45.83382" lon="6.39306">
        <ele>1368</ele>
        <time>2004-01-19T18:03:57Z</time>
      </trkpt>
      <trkpt lat="45.83277" lon="6.39273">
        <ele>1382</ele>
        <time>2004-01-19T18:03:57Z</time>
      </trkpt>
      <trkpt lat="45.83284" lon="6.39346">
        <ele>1384</ele>
        <time>2004-01-19T18:03:57Z</time>
      </trkpt>
      <trkpt lat="45.8326" lon="6.39415">
        <ele>1389</ele>
        <time>2004-01-19T18:03:57Z</time>
      </trkpt>
      <trkpt lat="45.83241" lon="6.39434">
        <ele>1396</ele>
        <time>2004-01-19T18:03:57Z</time>
      </trkpt>
      <trkpt lat="45.83138" lon="6.39449">
        <ele>1415</ele>
        <time>2004-01-19T18:03:57Z</time>
      </trkpt>
      <trkpt lat="45.83093" lon="6.39482">
        <ele>1416</ele>
        <time>2004-01-19T18:03:57Z</time>
      </trkpt>
      <trkpt lat="45.8302" lon="6.39452">
        <ele>1441</ele>
        <time>2004-01-19T18:03:57Z</time>
      </trkpt>
      <trkpt lat="45.82949" lon="6.39518">
        <ele>1447</ele>
        <time>2004-01-19T18:03:57Z</time>
      </trkpt>
      <trkpt lat="45.8294" lon="6.39499">
        <ele>1454</ele>
        <time>2004-01-19T18:03:57Z</time>
      </trkpt>
      <trkpt lat="45.82917" lon="6.39486">
        <ele>1460</ele>
        <time>2004-01-19T18:03:57Z</time>
      </trkpt>
      <trkpt lat="45.82859" lon="6.39473">
        <ele>1451</ele>
        <time>2004-01-19T18:03:57Z</time>
      </trkpt>
      <trkpt lat="45.82878" lon="6.39475">
        <ele>1471</ele>
        <time>2004-01-19T18:03:57Z</time>
      </trkpt>
      <trkpt lat="45.82842" lon="6.39479">
        <ele>1466</ele>
        <time>2004-01-19T18:03:57Z</time>
      </trkpt>
      <trkpt lat="45.82788" lon="6.39518">
        <ele>1478</ele>
        <time>2004-01-19T18:03:57Z</time>
      </trkpt>
      <trkpt lat="45.82764" lon="6.39561">
        <ele>1485</ele>
        <time>2004-01-19T18:03:57Z</time>
      </trkpt>
      <trkpt lat="45.82756" lon="6.3955">
        <ele>1487</ele>
        <time>2004-01-19T18:03:57Z</time>
      </trkpt>
      <trkpt lat="45.82709" lon="6.3964">
        <ele>1505</ele>
        <time>2004-01-19T18:03:57Z</time>
      </trkpt>
      <trkpt lat="45.82659" lon="6.39673">
        <ele>1519</ele>
        <time>2004-01-19T18:03:57Z</time>
      </trkpt>
      <trkpt lat="45.82659" lon="6.3972">
        <ele>1524</ele>
        <time>2004-01-19T18:03:57Z</time>
      </trkpt>
      <trkpt lat="45.82629" lon="6.39776">
        <ele>1539</ele>
        <time>2004-01-19T18:03:57Z</time>
      </trkpt>
      <trkpt lat="45.82625" lon="6.39838">
        <ele>1550</ele>
        <time>2004-01-19T18:03:57Z</time>
      </trkpt>
      <trkpt lat="45.82582" lon="6.39876">
        <ele>1565</ele>
        <time>2004-01-19T18:03:57Z</time>
      </trkpt>
      <trkpt lat="45.82588" lon="6.40007">
        <ele>1590</ele>
        <time>2004-01-19T18:03:57Z</time>
      </trkpt>
      <trkpt lat="45.82571" lon="6.40024">
        <ele>1595</ele>
        <time>2004-01-19T18:03:57Z</time>
      </trkpt>
      <trkpt lat="45.82588" lon="6.4008">
        <ele>1604</ele>
        <time>2004-01-19T18:03:57Z</time>
      </trkpt>
      <trkpt lat="45.82593" lon="6.40185">
        <ele>1620</ele>
        <time>2004-01-19T18:03:57Z</time>
      </trkpt>
      <trkpt lat="45.82567" lon="6.402">
        <ele>1629</ele>
        <time>2004-01-19T18:03:57Z</time>
      </trkpt>
      <trkpt lat="45.82554" lon="6.40239">
        <ele>1636</ele>
        <time>2004-01-19T18:03:57Z</time>
      </trkpt>
      <trkpt lat="45.82554" lon="6.40503">
        <ele>1676</ele>
        <time>2004-01-19T18:03:57Z</time>
      </trkpt>
      <trkpt lat="45.82582" lon="6.40529">
        <ele>1688</ele>
        <time>2004-01-19T18:03:57Z</time>
      </trkpt>
      <trkpt lat="45.8261" lon="6.40606">
        <ele>1696</ele>
        <time>2004-01-19T18:03:57Z</time>
      </trkpt>
      <trkpt lat="45.82655" lon="6.4066">
        <ele>1711</ele>
        <time>2004-01-19T18:03:57Z</time>
      </trkpt>
      <trkpt lat="45.82689" lon="6.40599">
        <ele>1724</ele>
        <time>2004-01-19T18:03:57Z</time>
      </trkpt>
      <trkpt lat="45.82831" lon="6.40572">
        <ele>1752</ele>
        <time>2004-01-19T18:03:57Z</time>
      </trkpt>
      <trkpt lat="45.82885" lon="6.4061">
        <ele>1729</ele>
        <time>2004-01-19T18:03:57Z</time>
      </trkpt>
      <trkpt lat="45.829" lon="6.40597">
        <ele>1716</ele>
        <time>2004-01-19T18:03:57Z</time>
      </trkpt>
      <trkpt lat="45.82921" lon="6.40627">
        <ele>1708</ele>
        <time>2004-01-19T18:03:57Z</time>
      </trkpt>
      <trkpt lat="45.83022" lon="6.40524">
        <ele>1664</ele>
        <time>2004-01-19T18:03:57Z</time>
      </trkpt>
      <trkpt lat="45.83093" lon="6.40548">
        <ele>1636</ele>
        <time>2004-01-19T18:03:57Z</time>
      </trkpt>
      <trkpt lat="45.83269" lon="6.40417">
        <ele>1593</ele>
        <time>2004-01-19T18:03:57Z</time>
      </trkpt>
      <trkpt lat="45.83288" lon="6.40434">
        <ele>1591</ele>
        <time>2004-01-19T18:03:57Z</time>
      </trkpt>
      <trkpt lat="45.83275" lon="6.40464">
        <ele>1594</ele>
        <time>2004-01-19T18:03:57Z</time>
      </trkpt>
      <trkpt lat="45.83286" lon="6.40464">
        <ele>1590</ele>
        <time>2004-01-19T18:03:57Z</time>
      </trkpt>
      <trkpt lat="45.83266" lon="6.40466">
        <ele>1571</ele>
        <time>2004-01-19T18:03:57Z</time>
      </trkpt>
      <trkpt lat="45.83282" lon="6.40462">
        <ele>1596</ele>
        <time>2004-01-19T18:03:57Z</time>
      </trkpt>
      <trkpt lat="45.83292" lon="6.40436">
        <ele>1598</ele>
        <time>2004-01-19T18:03:57Z</time>
      </trkpt>
      <trkpt lat="45.8344" lon="6.40327">
        <ele>1532</ele>
        <time>2004-01-19T18:03:57Z</time>
      </trkpt>
      <trkpt lat="45.83432" lon="6.40306">
        <ele>1526</ele>
        <time>2004-01-19T18:03:57Z</time>
      </trkpt>
      <trkpt lat="45.83475" lon="6.40293">
        <ele>1510</ele>
        <time>2004-01-19T18:03:57Z</time>
      </trkpt>
      <trkpt lat="45.83475" lon="6.4025">
        <ele>1506</ele>
        <time>2004-01-19T18:03:57Z</time>
      </trkpt>
      <trkpt lat="45.83494" lon="6.40252">
        <ele>1504</ele>
        <time>2004-01-19T18:03:57Z</time>
      </trkpt>
      <trkpt lat="45.83518" lon="6.40303">
        <ele>1493</ele>
        <time>2004-01-19T18:03:57Z</time>
      </trkpt>
      <trkpt lat="45.8352" lon="6.4022">
        <ele>1486</ele>
        <time>2004-01-19T18:03:57Z</time>
      </trkpt>
      <trkpt lat="45.83468" lon="6.40147">
        <ele>1478</ele>
        <time>2004-01-19T18:03:57Z</time>
      </trkpt>
      <trkpt lat="45.83528" lon="6.40151">
        <ele>1461</ele>
        <time>2004-01-19T18:03:57Z</time>
      </trkpt>
      <trkpt lat="45.835" lon="6.40076">
        <ele>1446</ele>
        <time>2004-01-19T18:03:57Z</time>
      </trkpt>
      <trkpt lat="45.83455" lon="6.40078">
        <ele>1446</ele>
        <time>2004-01-19T18:03:57Z</time>
      </trkpt>
      <trkpt lat="45.83412" lon="6.40054">
        <ele>1443</ele>
        <time>2004-01-19T18:03:57Z</time>
      </trkpt>
      <trkpt lat="45.83378" lon="6.39984">
        <ele>1427</ele>
        <time>2004-01-19T18:03:57Z</time>
      </trkpt>
      <trkpt lat="45.83337" lon="6.39958">
        <ele>1424</ele>
        <time>2004-01-19T18:03:57Z</time>
      </trkpt>
      <trkpt lat="45.83241" lon="6.39943">
        <ele>1423</ele>
        <time>2004-01-19T18:03:57Z</time>
      </trkpt>
      <trkpt lat="45.83239" lon="6.39928">
        <ele>1422</ele>
        <time>2004-01-19T18:03:57Z</time>
      </trkpt>
      <trkpt lat="45.83266" lon="6.39904">
        <ele>1428</ele>
        <time>2004-01-19T18:03:57Z</time>
      </trkpt>
      <trkpt lat="45.83221" lon="6.39863">
        <ele>1419</ele>
        <time>2004-01-19T18:03:57Z</time>
      </trkpt>
      <trkpt lat="45.83099" lon="6.39816">
        <ele>1418</ele>
        <time>2004-01-19T18:03:57Z</time>
      </trkpt>
      <trkpt lat="45.83086" lon="6.39776">
        <ele>1409</ele>
        <time>2004-01-19T18:03:57Z</time>
      </trkpt>
      <trkpt lat="45.83054" lon="6.39745">
        <ele>1405</ele>
        <time>2004-01-19T18:03:57Z</time>
      </trkpt>
      <trkpt lat="45.83056" lon="6.39673">
        <ele>1395</ele>
        <time>2004-01-19T18:03:57Z</time>
      </trkpt>
      <trkpt lat="45.8302" lon="6.39668">
        <ele>1393</ele>
        <time>2004-01-19T18:03:57Z</time>
      </trkpt>
      <trkpt lat="45.83026" lon="6.39645">
        <ele>1392</ele>
        <time>2004-01-19T18:03:57Z</time>
      </trkpt>
      <trkpt lat="45.83086" lon="6.39636">
        <ele>1392</ele>
        <time>2004-01-19T18:03:57Z</time>
      </trkpt>
      <trkpt lat="45.83138" lon="6.3957">
        <ele>1392</ele>
        <time>2004-01-19T18:03:57Z</time>
      </trkpt>
      <trkpt lat="45.83179" lon="6.39563">
        <ele>1394</ele>
        <time>2004-01-19T18:03:57Z</time>
      </trkpt>
      <trkpt lat="45.83215" lon="6.39527">
        <ele>1392</ele>
        <time>2004-01-19T18:03:57Z</time>
      </trkpt>
      <trkpt lat="45.83215" lon="6.39505">
        <ele>1392</ele>
        <time>2004-01-19T18:03:57Z</time>
      </trkpt>
      <trkpt lat="45.83161" lon="6.39473">
        <ele>1396</ele>
        <time>2004-01-19T18:03:57Z</time>
      </trkpt>
      <trkpt lat="45.83213" lon="6.39436">
        <ele>1397</ele>
        <time>2004-01-19T18:03:57Z</time>
      </trkpt>
      <trkpt lat="45.83234" lon="6.39278">
        <ele>1378</ele>
        <time>2004-01-19T18:03:57Z</time>
      </trkpt>
      <trkpt lat="45.83204" lon="6.39261">
        <ele>1391</ele>
        <time>2004-01-19T18:03:57Z</time>
      </trkpt>
      <trkpt lat="45.83209" lon="6.39237">
        <ele>1391</ele>
        <time>2004-01-19T18:03:57Z</time>
      </trkpt>
      <trkpt lat="45.83322" lon="6.39175">
        <ele>1388</ele>
        <time>2004-01-19T18:03:57Z</time>
      </trkpt>
      <trkpt lat="45.83462" lon="6.39188">
        <ele>1368</ele>
        <time>2004-01-19T18:03:57Z</time>
      </trkpt>
      <trkpt lat="45.83569" lon="6.39226">
        <ele>1360</ele>
        <time>2004-01-19T18:03:57Z</time>
      </trkpt>
      <trkpt lat="45.8373" lon="6.39166">
        <ele>1351</ele>
        <time>2004-01-19T18:03:57Z</time>
      </trkpt>
      <trkpt lat="45.83865" lon="6.39155">
        <ele>1331</ele>
        <time>2004-01-19T18:03:57Z</time>
      </trkpt>
      <trkpt lat="45.83977" lon="6.392">
        <ele>1306</ele>
        <time>2004-01-19T18:03:57Z</time>
      </trkpt>
      <trkpt lat="45.84022" lon="6.3916">
        <ele>1292</ele>
        <time>2004-01-19T18:03:57Z</time>
      </trkpt>
      <trkpt lat="45.84048" lon="6.39164">
        <ele>1293</ele>
        <time>2004-01-19T18:03:57Z</time>
      </trkpt>
      <trkpt lat="45.84056" lon="6.3913">
        <ele>1274</ele>
        <time>2004-01-19T18:03:57Z</time>
      </trkpt>
      <trkpt lat="45.8403" lon="6.39001">
        <ele>1275</ele>
        <time>2004-01-19T18:03:57Z</time>
      </trkpt>
      <trkpt lat="45.84131" lon="6.38909">
        <ele>1257</ele>
        <time>2004-01-19T18:03:57Z</time>
      </trkpt>
      <trkpt lat="45.84196" lon="6.38909">
        <ele>1251</ele>
        <time>2004-01-19T18:03:57Z</time>
      </trkpt>
      <trkpt lat="45.84208" lon="6.38885">
        <ele>1246</ele>
        <time>2004-01-19T18:03:57Z</time>
      </trkpt>
      <trkpt lat="45.84208" lon="6.38782">
        <ele>1242</ele>
        <time>2004-01-19T18:03:57Z</time>
      </trkpt>
      <trkpt lat="45.84247" lon="6.38731">
        <ele>1240</ele>
        <time>2004-01-19T18:03:57Z</time>
      </trkpt>
      <trkpt lat="45.84335" lon="6.38746">
        <ele>1240</ele>
        <time>2004-01-19T18:03:57Z</time>
      </trkpt>
      <trkpt lat="45.84354" lon="6.38617">
        <ele>1231</ele>
        <time>2004-01-19T18:03:57Z</time>
      </trkpt>
      <trkpt lat="45.84382" lon="6.38578">
        <ele>1231</ele>
        <time>2004-01-19T18:03:57Z</time>
      </trkpt>
      <trkpt lat="45.84457" lon="6.38552">
        <ele>1230</ele>
        <time>2004-01-19T18:03:57Z</time>
      </trkpt>
      <trkpt lat="45.84472" lon="6.38357">
        <ele>1228</ele>
        <time>2004-01-19T18:03:57Z</time>
      </trkpt>
      <trkpt lat="45.84584" lon="6.38278">
        <ele>1211</ele>
        <time>2004-01-19T18:03:57Z</time>
      </trkpt>
      <trkpt lat="45.84633" lon="6.38085">
        <ele>1201</ele>
        <time>2004-01-19T18:03:57Z</time>
      </trkpt>
      <trkpt lat="45.84663" lon="6.38035">
        <ele>1201</ele>
        <time>2004-01-19T18:03:57Z</time>
      </trkpt>
      <trkpt lat="45.84723" lon="6.37984">
        <ele>1200</ele>
        <time>2004-01-19T18:03:57Z</time>
      </trkpt>
      <trkpt lat="45.84754" lon="6.37926">
        <ele>1197</ele>
        <time>2004-01-19T18:03:57Z</time>
      </trkpt>
      <trkpt lat="45.84805" lon="6.37711">
        <ele>1180</ele>
        <time>2004-01-19T18:03:57Z</time>
      </trkpt>
      <trkpt lat="45.84841" lon="6.37686">
        <ele>1179</ele>
        <time>2004-01-19T18:03:57Z</time>
      </trkpt>
      <trkpt lat="45.84925" lon="6.37713">
        <ele>1178</ele>
        <time>2004-01-19T18:03:57Z</time>
      </trkpt>
      <trkpt lat="45.84966" lon="6.37705">
        <ele>1177</ele>
        <time>2004-01-19T18:03:57Z</time>
      </trkpt>
      <trkpt lat="45.84998" lon="6.37568">
        <ele>1166</ele>
        <time>2004-01-19T18:03:57Z</time>
      </trkpt>
    </trkseg>
  </trk>
</gpx>